Location: Brunsen
(51.8651°N, 9.8610°E)
Time: 19:46:01
(UTC+00:00)

CZ-2C R/B - Pass Details

Date: 14 August 2024
Orbit: 782 x 869 km, 98.3° (Epoch: 07 September)

Event Time Altitude Azimuth Distance (km) Brightness Sun altitude
Exits shadow 02:55:42 11° 250° (WSW) 2,413 4.5 -9.8°
Maximum altitude 02:57:58 13° 276° (W) 2,221 4.5 -9.5°
Drops below altitude 10° 03:00:35 10° 305° (NW) 2,452 4.9 -9.2°
Sets 03:04:19 0° 331° (NNW) 3,371 5.9 -8.7°
